IRIDIUM 106 1 41917U 17003A 25352.53456337 -.00000009 00000+0 -10204-4 0 9997 2 41917 86.3993 164.0346 0002296 97.7722 262.3735 14.34217509467314 IRIDIUM 103 1 41918U 17003B 25352.52188084 .00000079 00000+0 21322-4 0 9996 2 41918 86.3987 163.9402 0001692 101.4885 258.6501 14.34214728467332 IRIDIUM 109 1 41919U 17003C 25352.52822277 .00000018 00000+0 -76872-6 0 9992 2 41919 86.3989 163.9940 0001946 93.6779 266.4639 14.34220140467309 IRIDIUM 102 1 41920U 17003D 25352.56627456 -.00000021 00000+0 -14474-4 0 9993 2 41920 86.3993 163.9057 0001884 88.5450 271.5962 14.34216994467392 IRIDIUM 105 1 41921U 17003E 25352.46724543 .00000277 00000+0 91911-4 0 9990 2 41921 86.3982 132.4391 0001922 95.4432 264.6983 14.34215483469236 IRIDIUM 104 1 41922U 17003F 25352.57895836 -.00000045 00000+0 -23057-4 0 9998 2 41922 86.3994 163.9402 0001530 89.4457 270.6914 14.34217581467383 IRIDIUM 114 1 41923U 17003G 25352.58529482 .00000017 00000+0 -91240-6 0 9990 2 41923 86.3992 163.9213 0001706 93.1860 266.9531 14.34216675467361 IRIDIUM 108 1 41924U 17003H 25352.47405742 .00000276 00000+0 91381-4 0 9991 2 41924 86.3976 132.3259 0002093 90.0310 270.1126 14.34218327469208 IRIDIUM 112 1 41925U 17003J 25352.57261635 .00000065 00000+0 16009-4 0 9994 2 41925 86.3985 163.7772 0001863 88.7868 271.3541 14.34217874467380 IRIDIUM 111 1 41926U 17003K 25352.55993286 .00000013 00000+0 -22571-5 0 9993 2 41926 86.3991 163.8491 0001876 94.3056 265.8355 14.34217674467360 IRIDIUM 113 1 42803U 17039A 25352.60966576 .00000160 00000+0 50160-4 0 9991 2 42803 86.3968 37.6416 0001998 94.0404 266.1020 14.34218605445301 IRIDIUM 123 1 42804U 17039B 25352.58137791 .00000240 00000+0 78502-4 0 9997 2 42804 86.3965 69.1375 0002164 104.6374 255.5062 14.34218075444064 IRIDIUM 120 1 42805U 17039C 25352.60332471 .00000187 00000+0 59794-4 0 9995 2 42805 86.3960 37.4502 0002524 95.1248 265.0236 14.34218521445295 IRIDIUM 115 1 42806U 17039D 25352.58107608 .00000308 00000+0 85494-4 0 9996 2 42806 86.4494 37.5634 0002596 104.1546 255.9944 14.43278141448210 IRIDIUM 118 1 42807U 17039E 25352.61309047 .00000090 00000+0 24934-4 0 9992 2 42807 86.3963 69.1233 0001961 96.9633 263.1786 14.34215856444065 IRIDIUM 117 1 42808U 17039F 25352.63211674 .00000239 00000+0 78170-4 0 9999 2 42808 86.3965 69.0745 0002105 102.4963 257.6468 14.34218887444090 IRIDIUM 126 1 42809U 17039G 25352.58771993 .00000063 00000+0 15481-4 0 9990 2 42809 86.3965 69.1414 0001956 100.4513 259.6904 14.34217622444067 IRIDIUM 124 1 42810U 17039H 25352.58421738 .00000312 00000+0 86876-4 0 9994 2 42810 86.4489 5.8635 0002362 96.6329 263.5141 14.43281357449064 IRIDIUM 128 1 42811U 17039J 25352.57845790 .00000147 00000+0 45307-4 0 9992 2 42811 86.3969 100.6796 0002389 97.6125 262.5342 14.34218360444097 IRIDIUM 121 1 42812U 17039K 25352.60674754 .00000253 00000+0 83287-4 0 9994 2 42812 86.3964 69.1597 0002221 94.6499 265.4950 14.34218705443940 IRIDIUM 133 1 42955U 17061A 25352.54040787 .00000245 00000+0 80349-4 0 9990 2 42955 86.3972 100.8089 0002134 97.6366 262.5072 14.34220370428885 IRIDIUM 100 1 42956U 17061B 25352.60382725 .00000224 00000+0 72954-4 0 9999 2 42956 86.3968 100.7051 0002058 98.1197 262.0232 14.34217523428892 IRIDIUM 122 1 42957U 17061C 25352.36281067 .00000251 00000+0 82420-4 0 9999 2 42957 86.3969 100.8056 0001984 98.8393 261.3028 14.34216625428866 IRIDIUM 129 1 42958U 17061D 25352.38817930 .00000087 00000+0 24118-4 0 9993 2 42958 86.3971 100.8602 0001754 90.0529 270.0868 14.34217859428888 IRIDIUM 119 1 42959U 17061E 25352.35646773 .00000261 00000+0 86217-4 0 9998 2 42959 86.3970 100.8682 0001826 97.7385 262.4019 14.34217858428893 IRIDIUM 107 1 42960U 17061F 25352.58479995 .00000213 00000+0 69133-4 0 9990 2 42960 86.3972 100.7932 0002129 107.4545 252.6883 14.34218481428936 IRIDIUM 132 1 42961U 17061G 25352.59114286 .00000173 00000+0 54726-4 0 9998 2 42961 86.3972 100.7712 0002076 100.0971 260.0460 14.34216787428937 IRIDIUM 136 1 42962U 17061H 25352.55308692 .00000187 00000+0 59838-4 0 9995 2 42962 86.3970 100.7929 0001934 99.1717 260.9697 14.34218160428943 IRIDIUM 139 1 42963U 17061J 25352.55943078 .00000189 00000+0 60399-4 0 9995 2 42963 86.3974 100.8494 0002113 100.2661 259.8774 14.34217802428954 IRIDIUM 125 1 42964U 17061K 25352.54673044 .00000244 00000+0 79969-4 0 9993 2 42964 86.3973 100.9123 0001789 111.9708 248.1678 14.34214017428963 IRIDIUM 135 1 43070U 17083A 25352.59063753 .00000225 00000+0 73343-4 0 9990 2 43070 86.3962 37.4979 0002154 93.0699 267.0743 14.34216075418260 IRIDIUM 138 1 43071U 17083B 25352.61600833 .00000101 00000+0 29070-4 0 9991 2 43071 86.3976 37.1548 0001771 94.7664 265.3734 14.34218141418255 IRIDIUM 116 1 43072U 17083C 25352.58429886 .00000073 00000+0 19160-4 0 9992 2 43072 86.3959 37.4886 0002584 95.3955 264.7535 14.34216883418284 IRIDIUM 130 1 43073U 17083D 25352.55258414 .00000138 00000+0 42178-4 0 9994 2 43073 86.3973 37.7599 0002497 99.4858 260.6620 14.34219520418220 IRIDIUM 151 1 43074U 17083E 25352.59698160 .00000112 00000+0 32759-4 0 9991 2 43074 86.3965 37.5373 0002244 93.2372 266.9081 14.34218191418259 IRIDIUM 134 1 43075U 17083F 25352.63504142 .00000231 00000+0 75405-4 0 9990 2 43075 86.3965 37.5268 0002293 98.8176 261.3279 14.34215566418228 IRIDIUM 137 1 43076U 17083G 25352.57795586 .00000057 00000+0 13243-4 0 9996 2 43076 86.3967 37.6398 0002627 86.4416 273.7080 14.34217551418286 IRIDIUM 141 1 43077U 17083H 25352.57161092 .00000221 00000+0 72011-4 0 9997 2 43077 86.3961 37.4833 0002060 96.5497 263.5933 14.34218533418280 IRIDIUM 153 1 43078U 17083J 25352.59355705 .00000113 00000+0 33123-4 0 9997 2 43078 86.3968 5.9646 0001878 97.1789 262.9620 14.34218414419394 IRIDIUM 131 1 43079U 17083K 25352.55892559 .00000240 00000+0 78775-4 0 9990 2 43079 86.3969 37.6627 0002117 93.3367 266.8071 14.34218728418215 IRIDIUM 144 1 43249U 18030A 25352.59990217 -.00000004 00000+0 -83378-5 0 9992 2 43249 86.3964 5.8953 0002256 94.4437 265.7016 14.34217246404252 IRIDIUM 149 1 43250U 18030B 25352.46670611 .00000138 00000+0 42288-4 0 9993 2 43250 86.3966 5.9201 0002220 92.3716 267.7734 14.34218384404254 IRIDIUM 157 1 43251U 18030C 25352.55550465 .00000236 00000+0 77232-4 0 9994 2 43251 86.3966 5.9321 0002186 87.8441 272.3005 14.34217611404247 IRIDIUM 140 1 43252U 18030D 25352.57453163 .00000045 00000+0 88523-5 0 9998 2 43252 86.3965 5.9371 0002300 94.6785 265.4674 14.34217373404304 IRIDIUM 145 1 43253U 18030E 25352.56184520 .00000231 00000+0 75304-4 0 9995 2 43253 86.3966 5.9150 0002567 93.4107 266.7382 14.34216551404230 IRIDIUM 146 1 43254U 18030F 25352.47305341 .00000264 00000+0 87367-4 0 9990 2 43254 86.3966 5.9650 0002401 92.2561 267.8910 14.34214397404239 IRIDIUM 148 1 43255U 18030G 25352.58087432 .00000097 00000+0 27612-4 0 9992 2 43255 86.3966 5.9602 0002239 88.7187 271.4266 14.34217350404282 IRIDIUM 142 1 43256U 18030H 25352.54916146 .00000109 00000+0 31881-4 0 9999 2 43256 86.3962 5.8692 0002595 93.8530 266.2963 14.34217983404245 IRIDIUM 150 1 43257U 18030J 25352.58721544 .00000224 00000+0 73077-4 0 9991 2 43257 86.3967 5.9636 0002353 93.2267 266.9198 14.34216138404274 IRIDIUM 143 1 43258U 18030K 25352.56818560 .00000236 00000+0 77323-4 0 9996 2 43258 86.3970 6.0568 0002474 94.3995 265.7483 14.34222016404208 IRIDIUM 161 1 43478U 18047C 25352.56215737 .00000101 00000+0 24120-4 0 9993 2 43478 86.4508 163.9489 0001859 87.7635 272.3778 14.43280609399080 IRIDIUM 152 1 43479U 18047D 25352.47113648 .00000019 00000+0 -40971-6 0 9995 2 43479 86.3987 163.8475 0001714 92.0197 268.1195 14.34217399396581 IRIDIUM 147 1 43480U 18047E 25352.47746979 .00000027 00000+0 26165-5 0 9992 2 43480 86.3986 163.8469 0002062 90.8913 269.2520 14.34231573396588 IRIDIUM 110 1 43481U 18047F 25352.48381805 .00000043 00000+0 81344-5 0 9995 2 43481 86.3987 163.9311 0001536 82.7786 277.3585 14.34217262396579 IRIDIUM 162 1 43482U 18047G 25352.55585855 .00000106 00000+0 25642-4 0 9993 2 43482 86.4507 163.8448 0001892 99.7073 260.4342 14.43278951399075 IRIDIUM 160 1 43569U 18061A 25352.35989107 .00000241 00000+0 78942-4 0 9992 2 43569 86.3977 132.4042 0001877 88.2691 271.8719 14.34217474387451 IRIDIUM 166 1 43570U 18061B 25352.45502911 .00000220 00000+0 71502-4 0 9991 2 43570 86.3978 132.3174 0002141 91.9519 268.1922 14.34218143387497 IRIDIUM 158 1 43571U 18061C 25352.42331589 .00000266 00000+0 88021-4 0 9994 2 43571 86.3979 132.3407 0001876 99.9092 260.2315 14.34216557387458 IRIDIUM 165 1 43572U 18061D 25352.44868743 .00000031 00000+0 40589-5 0 9992 2 43572 86.3980 132.3728 0002089 91.6744 268.4691 14.34216910387480 IRIDIUM 155 1 43573U 18061E 25352.48040002 .00000248 00000+0 81631-4 0 9999 2 43573 86.3980 132.2379 0001991 98.9101 261.2320 14.34217816387453 IRIDIUM 154 1 43574U 18061F 25352.46137218 .00000261 00000+0 86260-4 0 9992 2 43574 86.3980 132.3702 0002045 92.7436 267.3994 14.34217952387500 IRIDIUM 163 1 43575U 18061G 25352.44234393 .00000146 00000+0 45171-4 0 9991 2 43575 86.3977 132.2992 0001869 96.0077 264.1332 14.34217100387470 IRIDIUM 156 1 43576U 18061H 25352.41697378 .00000253 00000+0 83153-4 0 9996 2 43576 86.3978 132.3169 0002152 99.3937 260.7502 14.34216734387468 IRIDIUM 164 1 43577U 18061J 25352.46772198 -.00000571 00000+0 -21104-3 0 9998 2 43577 86.3985 132.3332 0002063 89.4228 270.7204 14.34210080387517 IRIDIUM 159 1 43578U 18061K 25352.43600203 .00000161 00000+0 50308-4 0 9995 2 43578 86.3979 132.2870 0001974 90.8435 269.2987 14.34217344387479 IRIDIUM 180 1 43922U 19002A 25352.57503462 .00000183 00000+0 58167-4 0 9993 2 43922 86.3964 69.1019 0001960 94.9692 265.1728 14.34218180363105 IRIDIUM 176 1 43923U 19002B 25352.63677359 .00000788 00000+0 12109-3 0 9994 2 43923 86.6085 69.0458 0002332 95.8505 264.2978 14.72255938372680 IRIDIUM 168 1 43924U 19002C 25352.63845650 .00000271 00000+0 89695-4 0 9998 2 43924 86.3967 69.1477 0002091 98.4529 261.6904 14.34215900363094 IRIDIUM 173 1 43925U 19002D 25352.62576793 .00000197 00000+0 63387-4 0 9994 2 43925 86.3963 69.0492 0002075 101.8949 258.2479 14.34219898363071 IRIDIUM 169 1 43926U 19002E 25352.54635759 .00000316 00000+0 96744-4 0 9990 2 43926 86.4225 100.7343 0002316 124.6926 235.4491 14.38609432364251 IRIDIUM 172 1 43927U 19002F 25352.61942807 .00000277 00000+0 91819-4 0 9998 2 43927 86.3963 69.0591 0001969 93.7089 266.4332 14.34215755363086 IRIDIUM 175 1 43928U 19002G 25352.56408408 .00000738 00000+0 11303-3 0 9998 2 43928 86.1498 11.1522 0003215 86.5676 273.5908 14.72245726372663 IRIDIUM 171 1 43929U 19002H 25352.60041046 -.00000121 00000+0 -50257-4 0 9995 2 43929 86.3972 69.3537 0002288 98.2953 261.8502 14.34215174363078 IRIDIUM 170 1 43930U 19002J 25352.30312025 .00000853 00000+0 13134-3 0 9994 2 43930 86.6084 69.1890 0002306 91.0076 269.1405 14.72250468372648 IRIDIUM 167 1 43931U 19002K 25352.59406341 .00000223 00000+0 72664-4 0 9996 2 43931 86.3964 69.0908 0002527 103.0843 257.0635 14.34218393363070 IRIDIUM 181 1 56726U 23068S 25352.43406672 .00000337 00000+0 94271-4 0 9993 2 56726 86.4516 132.3477 0002355 83.8272 276.3197 14.43311050136366 IRIDIUM 177 1 56727U 23068T 25352.62351172 .00000993 00000+0 12716-3 0 9990 2 56727 86.1963 54.5357 0002234 85.6504 274.4972 14.80221733139650 IRIDIUM 174 1 56728U 23068U 25352.63058839 .00000520 00000+0 78659-4 0 9991 2 56728 86.6096 69.1814 0002060 88.5887 271.5566 14.72243980139450 IRIDIUM 178 1 56729U 23068V 25352.54494839 .00001171 00000+0 15069-3 0 9994 2 56729 86.6550 100.8754 0002293 81.8715 278.2767 14.80218225139647 IRIDIUM 179 1 56730U 23068W 25352.60721399 .00001142 00000+0 14688-3 0 9991 2 56730 86.6784 109.2886 0002397 88.9682 271.1814 14.80239216139652